DLH4UY EDDM-EDDC

Flight info

Callsign DLH4UY
Flight time 0h 36m
Altitude 24000
Route AKINI1S AKINI Y104 MAMOR L132 AGNAV/N0354F230 DCT SUPIL DCT KILNU L132 ABKIS Q240 DRN
Aircraft A20N/M-SDE2E3FGHIRWXY/LB1

Departure

Time 2026-05-06 19:25
Airport Munich Airport (EDDM)

Arrival

Time 2026-05-06 20:01
Airport Dresden Airport (EDDC)
Time Latitude Longitude Altitude Speed Heading
2026-05-06 18:40 48.35321 11.79781 1462 ft 0 kts 84°
2026-05-06 19:10 48.35321 11.79784 1462 ft 0 kts 83°
2026-05-06 19:10 48.35322 11.79786 1462 ft 0 kts 83°
2026-05-06 19:12 48.35321 11.79778 1463 ft 2 kts 91°
2026-05-06 19:12 48.35321 11.79755 1463 ft 2 kts 81°
2026-05-06 19:12 48.35319 11.79733 1462 ft 2 kts 84°
2026-05-06 19:13 48.35317 11.79711 1462 ft 2 kts 83°
2026-05-06 19:13 48.35315 11.79689 1462 ft 2 kts 84°
2026-05-06 19:13 48.35314 11.79667 1462 ft 2 kts 83°
2026-05-06 19:13 48.35312 11.79647 1463 ft 0 kts 84°
2026-05-06 19:14 48.35310 11.79631 1463 ft 2 kts 53°
2026-05-06 19:14 48.35298 11.79618 1462 ft 2 kts 11°
2026-05-06 19:14 48.35290 11.79618 1463 ft 1 kts 352°
2026-05-06 19:17 48.35357 11.79606 1463 ft 11 kts 353°
2026-05-06 19:17 48.35421 11.79564 1464 ft 10 kts 317°
2026-05-06 19:17 48.35492 11.79516 1465 ft 11 kts 352°
2026-05-06 19:17 48.35572 11.79502 1466 ft 11 kts 354°
2026-05-06 19:18 48.35658 11.79487 1466 ft 13 kts 353°
2026-05-06 19:18 48.35758 11.79468 1466 ft 14 kts 354°
2026-05-06 19:18 48.35859 11.79454 1466 ft 14 kts
2026-05-06 19:18 48.35935 11.79494 1464 ft 0 kts 14°
2026-05-06 19:19 48.35938 11.79495 1464 ft 2 kts 14°
2026-05-06 19:19 48.35966 11.79500 1463 ft 6 kts 360°
2026-05-06 19:19 48.36045 11.79487 1462 ft 14 kts 352°
2026-05-06 19:19 48.36148 11.79467 1460 ft 15 kts 354°
2026-05-06 19:20 48.36223 11.79558 1457 ft 16 kts 81°
2026-05-06 19:20 48.36237 11.79734 1456 ft 17 kts 84°
2026-05-06 19:20 48.36251 11.79926 1453 ft 19 kts 84°
2026-05-06 19:20 48.36265 11.80134 1451 ft 20 kts 84°
2026-05-06 19:21 48.36280 11.80353 1450 ft 21 kts 84°
2026-05-06 19:21 48.36297 11.80573 1449 ft 21 kts 82°
2026-05-06 19:21 48.36317 11.80801 1447 ft 22 kts 84°
2026-05-06 19:21 48.36334 11.81041 1446 ft 22 kts 84°
2026-05-06 19:22 48.36351 11.81276 1446 ft 22 kts 84°
2026-05-06 19:22 48.36368 11.81510 1446 ft 22 kts 83°
2026-05-06 19:22 48.36386 11.81743 1446 ft 22 kts 83°
2026-05-06 19:22 48.36402 11.81957 1446 ft 16 kts 65°
2026-05-06 19:23 48.36480 11.81996 1446 ft 6 kts 358°
2026-05-06 19:23 48.36526 11.81991 1446 ft 6 kts 353°
2026-05-06 19:23 48.36579 11.81980 1446 ft 10 kts 351°
2026-05-06 19:23 48.36654 11.81945 1446 ft 11 kts 316°
2026-05-06 19:24 48.36666 11.81832 1446 ft 11 kts 264°
2026-05-06 19:24 48.36652 11.81655 1446 ft 40 kts 263°
2026-05-06 19:24 48.36592 11.80845 1446 ft 112 kts 263°
2026-05-06 19:24 48.36476 11.79431 1664 ft 149 kts 262°
2026-05-06 19:25 48.36359 11.77918 2406 ft 149 kts 263°
2026-05-06 19:25 48.36242 11.76414 3222 ft 147 kts 265°
2026-05-06 19:25 48.36123 11.74855 3822 ft 157 kts 265°
2026-05-06 19:25 48.36001 11.73198 4391 ft 167 kts 265°
2026-05-06 19:26 48.35869 11.71443 5097 ft 171 kts 265°
2026-05-06 19:26 48.35805 11.69675 5799 ft 173 kts 277°
2026-05-06 19:26 48.36166 11.67960 6521 ft 176 kts 296°
2026-05-06 19:26 48.36923 11.66528 7203 ft 184 kts 314°
2026-05-06 19:27 48.38073 11.65590 7754 ft 203 kts 345°
2026-05-06 19:27 48.39535 11.65948 8152 ft 232 kts 22°
2026-05-06 19:27 48.41029 11.67159 8535 ft 255 kts 26°
2026-05-06 19:27 48.42628 11.68463 9020 ft 273 kts 27°
2026-05-06 19:28 48.44378 11.69873 9541 ft 292 kts 27°
2026-05-06 19:28 48.46199 11.71334 10147 ft 306 kts 28°
2026-05-06 19:28 48.48122 11.72878 10679 ft 323 kts 27°
2026-05-06 19:28 48.50147 11.74498 11207 ft 338 kts 27°
2026-05-06 19:29 48.52236 11.76170 11987 ft 344 kts 27°
2026-05-06 19:29 48.54337 11.77849 12865 ft 346 kts 27°
2026-05-06 19:29 48.56443 11.79531 13795 ft 346 kts 27°
2026-05-06 19:29 48.58573 11.81233 14584 ft 349 kts 27°
2026-05-06 19:30 48.60744 11.82965 15321 ft 354 kts 27°
2026-05-06 19:30 48.62920 11.84704 16075 ft 358 kts 27°
2026-05-06 19:30 48.65129 11.86471 16823 ft 361 kts 27°
2026-05-06 19:30 48.67354 11.88252 17514 ft 366 kts 27°
2026-05-06 19:31 48.69589 11.90044 18189 ft 370 kts 27°
2026-05-06 19:31 48.71864 11.91872 18852 ft 374 kts 27°
2026-05-06 19:31 48.76476 11.95579 20190 ft 381 kts 27°
2026-05-06 19:32 48.78827 11.97471 20858 ft 384 kts 28°
2026-05-06 19:32 48.81179 11.99365 21490 ft 388 kts 28°
2026-05-06 19:32 48.83568 12.01292 22110 ft 392 kts 28°
2026-05-06 19:32 48.85978 12.03239 22720 ft 396 kts 28°
2026-05-06 19:33 48.88414 12.05208 23306 ft 400 kts 29°
2026-05-06 19:33 48.90851 12.07181 23698 ft 403 kts 29°
2026-05-06 19:33 48.93333 12.09195 23775 ft 403 kts 28°
2026-05-06 19:33 48.95788 12.11187 23774 ft 403 kts 29°
2026-05-06 19:34 48.98265 12.13202 23766 ft 402 kts 29°
2026-05-06 19:34 49.00718 12.15198 23771 ft 402 kts 28°
2026-05-06 19:34 49.03182 12.17207 23762 ft 402 kts 29°
2026-05-06 19:34 49.05640 12.19211 23764 ft 402 kts 28°
2026-05-06 19:35 49.08117 12.21235 23767 ft 402 kts 28°
2026-05-06 19:35 49.10556 12.23227 23764 ft 403 kts 29°
2026-05-06 19:35 49.13041 12.25259 23770 ft 403 kts 29°
2026-05-06 19:35 49.15543 12.27312 23765 ft 403 kts 28°
2026-05-06 19:36 49.18014 12.29336 23766 ft 404 kts 29°
2026-05-06 19:36 49.20453 12.31338 23763 ft 403 kts 28°
2026-05-06 19:36 49.22940 12.33382 23771 ft 404 kts 28°
2026-05-06 19:36 49.25407 12.35411 23762 ft 404 kts 28°
2026-05-06 19:37 49.27890 12.37455 23766 ft 404 kts 28°
2026-05-06 19:37 49.30348 12.39482 23764 ft 403 kts 29°
2026-05-06 19:37 49.32807 12.41513 23758 ft 404 kts 28°
2026-05-06 19:37 49.35267 12.43548 23757 ft 403 kts 28°
2026-05-06 19:38 49.37727 12.45581 23766 ft 403 kts 28°
2026-05-06 19:38 49.40193 12.47623 23762 ft 404 kts 28°
2026-05-06 19:38 49.42652 12.49662 23761 ft 402 kts 28°
2026-05-06 19:38 49.45097 12.51691 23751 ft 403 kts 28°
2026-05-06 19:39 49.47562 12.53741 23756 ft 403 kts 28°
2026-05-06 19:39 49.50038 12.55802 23755 ft 404 kts 28°
2026-05-06 19:39 49.52509 12.57859 23760 ft 403 kts 27°
2026-05-06 19:39 49.55077 12.59484 23750 ft 402 kts 14°
2026-05-06 19:40 49.57793 12.60409 23760 ft 402 kts
2026-05-06 19:40 49.60532 12.61180 23751 ft 402 kts
2026-05-06 19:40 49.63292 12.61981 23758 ft 403 kts
2026-05-06 19:40 49.66031 12.62824 23757 ft 402 kts 10°
2026-05-06 19:41 49.68771 12.63709 23764 ft 403 kts 10°
2026-05-06 19:41 49.71482 12.64607 23764 ft 402 kts 11°
2026-05-06 19:41 49.74205 12.65528 23760 ft 402 kts 12°
2026-05-06 19:41 49.76947 12.66465 23754 ft 402 kts 11°
2026-05-06 19:42 49.79682 12.67405 23757 ft 402 kts 12°
2026-05-06 19:42 49.82407 12.68342 23757 ft 402 kts 12°
2026-05-06 19:42 49.85120 12.69279 23766 ft 402 kts 11°
2026-05-06 19:42 49.87858 12.70224 23755 ft 402 kts 11°
2026-05-06 19:43 49.90554 12.71157 23757 ft 402 kts 11°
2026-05-06 19:43 49.93292 12.72104 23759 ft 402 kts 11°
2026-05-06 19:43 49.96011 12.73047 23761 ft 402 kts 11°
2026-05-06 19:43 49.98717 12.73985 23767 ft 401 kts 11°
2026-05-06 19:44 50.01461 12.74938 23757 ft 400 kts 11°
2026-05-06 19:44 50.04172 12.75880 23335 ft 401 kts 11°
2026-05-06 19:44 50.06900 12.76828 22499 ft 408 kts 11°
2026-05-06 19:44 50.09642 12.77786 21876 ft 407 kts 11°
2026-05-06 19:45 50.12394 12.78746 21395 ft 402 kts 11°
2026-05-06 19:45 50.15133 12.79704 20941 ft 397 kts 11°
2026-05-06 19:45 50.17757 12.80626 20772 ft 384 kts 11°
2026-05-06 19:45 50.20352 12.81536 20779 ft 381 kts 11°
2026-05-06 19:46 50.22953 12.82446 20780 ft 385 kts 11°
2026-05-06 19:46 50.25525 12.83347 20678 ft 381 kts 11°
2026-05-06 19:46 50.28082 12.84248 20227 ft 379 kts 11°
2026-05-06 19:46 50.30670 12.85158 19711 ft 377 kts 11°
2026-05-06 19:47 50.33211 12.86052 19276 ft 374 kts 11°
2026-05-06 19:47 50.35711 12.86934 18867 ft 370 kts 10°
2026-05-06 19:47 50.38220 12.87819 18453 ft 367 kts 10°
2026-05-06 19:47 50.40682 12.88688 18009 ft 364 kts 11°
2026-05-06 19:48 50.43118 12.89549 17576 ft 361 kts 11°
2026-05-06 19:48 50.45542 12.90409 17150 ft 359 kts 11°
2026-05-06 19:48 50.47935 12.91509 16689 ft 359 kts 21°
2026-05-06 19:48 50.50126 12.93323 16237 ft 357 kts 29°
2026-05-06 19:49 50.52239 12.95351 15790 ft 355 kts 30°
2026-05-06 19:49 50.54415 12.97110 15338 ft 351 kts 21°
2026-05-06 19:49 50.56611 12.98787 14877 ft 351 kts 34°
2026-05-06 19:49 50.58469 13.01243 14448 ft 349 kts 43°
2026-05-06 19:50 50.60190 13.03849 14014 ft 346 kts 43°
2026-05-06 19:50 50.61926 13.06438 13575 ft 344 kts 42°
2026-05-06 19:50 50.63668 13.08944 13038 ft 337 kts 41°
2026-05-06 19:50 50.65405 13.11371 12196 ft 334 kts 40°
2026-05-06 19:51 50.67141 13.13753 11335 ft 331 kts 40°
2026-05-06 19:51 50.68856 13.16084 10500 ft 326 kts 40°
2026-05-06 19:51 50.70550 13.18376 9673 ft 322 kts 40°
2026-05-06 19:51 50.72230 13.20649 8856 ft 317 kts 40°
2026-05-06 19:52 50.73877 13.22875 8186 ft 310 kts 40°
2026-05-06 19:52 50.75496 13.25064 7823 ft 306 kts 39°
2026-05-06 19:52 50.77081 13.27207 7754 ft 289 kts 39°
2026-05-06 19:52 50.78567 13.29218 7757 ft 281 kts 39°
2026-05-06 19:53 50.80042 13.31214 7756 ft 281 kts 39°
2026-05-06 19:53 50.81522 13.33219 7753 ft 274 kts 39°
2026-05-06 19:53 50.82924 13.35120 7750 ft 259 kts 39°
2026-05-06 19:53 50.84262 13.36938 7650 ft 248 kts 39°
2026-05-06 19:54 50.85553 13.38692 7426 ft 244 kts 39°
2026-05-06 19:54 50.86823 13.40417 7122 ft 239 kts 39°
2026-05-06 19:54 50.88063 13.42103 6723 ft 234 kts 39°
2026-05-06 19:54 50.89272 13.43749 6314 ft 229 kts 39°
2026-05-06 19:55 50.90483 13.45375 5891 ft 225 kts 38°
2026-05-06 19:55 50.91668 13.46894 5481 ft 220 kts 38°
2026-05-06 19:55 50.92838 13.48414 5096 ft 215 kts 39°
2026-05-06 19:55 50.93964 13.49916 4798 ft 208 kts 39°
2026-05-06 19:56 50.95043 13.51383 4574 ft 204 kts 40°
2026-05-06 19:56 50.96107 13.52847 4381 ft 200 kts 40°
2026-05-06 19:56 50.97154 13.54299 4310 ft 200 kts 40°
2026-05-06 19:56 50.98207 13.55762 4287 ft 201 kts 40°
2026-05-06 19:57 50.99262 13.57226 4104 ft 201 kts 41°
2026-05-06 19:57 51.00303 13.58671 3850 ft 199 kts 41°
2026-05-06 19:57 51.01342 13.60112 3588 ft 198 kts 40°
2026-05-06 19:57 51.02355 13.61514 3414 ft 190 kts 41°
2026-05-06 19:58 51.03337 13.62872 3151 ft 181 kts 41°
2026-05-06 19:58 51.04244 13.64126 2889 ft 165 kts 41°
2026-05-06 19:58 51.05094 13.65299 2649 ft 161 kts 42°
2026-05-06 19:58 51.05909 13.66424 2416 ft 149 kts 42°
2026-05-06 19:59 51.06665 13.67466 2203 ft 139 kts 42°
2026-05-06 19:59 51.07390 13.68467 2036 ft 138 kts 42°
2026-05-06 19:59 51.08109 13.69458 1872 ft 137 kts 42°
2026-05-06 19:59 51.08827 13.70448 1702 ft 137 kts 42°
2026-05-06 20:00 51.09553 13.71451 1523 ft 137 kts 42°
2026-05-06 20:00 51.10263 13.72429 1341 ft 136 kts 41°
2026-05-06 20:00 51.10978 13.73414 1160 ft 136 kts 41°
2026-05-06 20:00 51.11697 13.74407 975 ft 134 kts 41°
2026-05-06 20:01 51.12392 13.75365 794 ft 130 kts 40°
2026-05-06 20:01 51.13021 13.76228 739 ft 100 kts 41°
2026-05-06 20:01 51.13420 13.76778 726 ft 50 kts 41°
2026-05-06 20:01 51.13675 13.77130 717 ft 46 kts 42°
2026-05-06 20:02 51.13891 13.77432 710 ft 28 kts 45°
2026-05-06 20:02 51.13835 13.77634 708 ft 21 kts 130°
2026-05-06 20:02 51.13749 13.77693 708 ft 9 kts 210°
2026-05-06 20:02 51.13687 13.77627 711 ft 12 kts 217°
2026-05-06 20:03 51.13610 13.77523 714 ft 16 kts 221°
2026-05-06 20:03 51.13498 13.77366 719 ft 28 kts 222°
2026-05-06 20:03 51.13327 13.77130 730 ft 34 kts 221°
2026-05-06 20:03 51.13161 13.76899 738 ft 29 kts 221°
2026-05-06 20:04 51.13010 13.76697 742 ft 26 kts 221°
2026-05-06 20:04 51.12877 13.76506 744 ft 23 kts 221°
2026-05-06 20:04 51.12758 13.76513 749 ft 18 kts 133°
2026-05-06 20:04 51.12681 13.76661 752 ft 15 kts 134°
2026-05-06 20:05 51.12616 13.76637 753 ft 8 kts 219°
2026-05-06 20:05 51.12595 13.76606 753 ft 0 kts 221°